When you browse on this site, cookies collect data to enhance your experience and personalize the content and advertising you see.
Visit our Privacy Policy to learn more. By continuing to use the site, you agree to this use of cookies and data.
  • In Schweiz
  • Länderverzeichnis
  • Für 7 Tage
  • Wassertemperatur
  • Satellitenkarten
  • Wetterkarte
  • Widgets
  • user-avatar
    Anmelden

    Stündliche Wetter Kaarst

    Heute, 23 Juli, Dienstag

    Zeit Temperatur Niederschläge Wind Luftdruck Luftfeuchtigkeit
    00:00 +23°C° 0 mm 1 m/S 763 mmHg 70%
    01:00 +22°C° 0 mm 1 m/S 763 mmHg 71%
    02:00 +22°C° 0 mm 1 m/S 763 mmHg 72%
    03:00 +22°C° 0 mm 1 m/S 763 mmHg 74%
    04:00 +23°C° 0 mm 1 m/S 763 mmHg 70%
    05:00 +23°C° 0 mm 1 m/S 763 mmHg 67%
    06:00 +24°C° 0 mm 1 m/S 763 mmHg 64%
    07:00 +26°C° 0 mm 1 m/S 763 mmHg 58%
    08:00 +28°C° 0 mm 2 m/S 762 mmHg 51%
    09:00 +30°C° 0 mm 2 m/S 762 mmHg 45%
    10:00 +31°C° 0 mm 2 m/S 762 mmHg 41%
    11:00 +34°C° 0 mm 2 m/S 762 mmHg 37%
    12:00 +35°C° 0 mm 2 m/S 761 mmHg 34%
    13:00 +34°C° 0 mm 1 m/S 761 mmHg 32%
    14:00 +35°C° 0 mm 1 m/S 761 mmHg 31%
    15:00 +35°C° 0 mm 1 m/S 760 mmHg 30%
    16:00 +35°C° 0 mm 1 m/S 760 mmHg 34%
    17:00 +34°C° 0 mm 1 m/S 760 mmHg 38%
    18:00 +34°C° 0 mm 2 m/S 759 mmHg 41%
    19:00 +31°C° 0 mm 2 m/S 760 mmHg 45%
    20:00 +30°C° 0 mm 2 m/S 760 mmHg 50%
    21:00 +28°C° 0 mm 2 m/S 760 mmHg 54%
    22:00 +28°C° 0 mm 2 m/S 759 mmHg 55%
    23:00 +27°C° 0 mm 2 m/S 759 mmHg 57%

    Morgen, 24 Juli, Mittwoch

    Zeit Temperatur Niederschläge Wind Luftdruck Luftfeuchtigkeit
    00:00 +26°C° 0 mm 2 m/S 759 mmHg 58%
    01:00 +26°C° 0 mm 2 m/S 759 mmHg 60%
    02:00 +25°C° 0 mm 3 m/S 758 mmHg 62%
    03:00 +25°C° 0 mm 3 m/S 758 mmHg 64%
    04:00 +26°C° 0 mm 3 m/S 758 mmHg 63%
    05:00 +26°C° 0 mm 3 m/S 758 mmHg 63%
    06:00 +27°C° 0 mm 3 m/S 758 mmHg 62%
    07:00 +29°C° 0 mm 3 m/S 758 mmHg 57%
    08:00 +30°C° 0 mm 4 m/S 758 mmHg 52%
    09:00 +33°C° 0 mm 4 m/S 758 mmHg 46%
    10:00 +35°C° 0 mm 3 m/S 757 mmHg 41%
    11:00 +36°C° 0 mm 3 m/S 757 mmHg 37%
    12:00 +38°C° 0 mm 3 m/S 757 mmHg 32%
    13:00 +38°C° 0 mm 2 m/S 757 mmHg 30%
    14:00 +39°C° 0 mm 2 m/S 757 mmHg 28%
    15:00 +39°C° 0 mm 2 m/S 757 mmHg 26%
    16:00 +37°C° 0 mm 1 m/S 756 mmHg 30%
    17:00 +36°C° 0 mm 1 m/S 756 mmHg 34%
    18:00 +35°C° 0 mm 1 m/S 756 mmHg 38%
    19:00 +34°C° 0 mm 1 m/S 757 mmHg 41%
    20:00 +32°C° 0 mm 1 m/S 757 mmHg 44%
    21:00 +30°C° 0 mm 1 m/S 758 mmHg 47%
    22:00 +30°C° 0 mm 1 m/S 758 mmHg 51%
    23:00 +29°C° 0 mm 1 m/S 758 mmHg 55%

    übermorgen, 25 Juli, Donnerstag

    Zeit Temperatur Niederschläge Wind Luftdruck Luftfeuchtigkeit
    00:00 +28°C° 0 mm 1 m/S 758 mmHg 59%
    01:00 +27°C° 0 mm 1 m/S 758 mmHg 61%
    02:00 +27°C° 0 mm 1 m/S 758 mmHg 64%
    03:00 +26°C° 0 mm 1 m/S 758 mmHg 66%
    04:00 +27°C° 0 mm 1 m/S 758 mmHg 64%
    05:00 +27°C° 0 mm 1 m/S 758 mmHg 63%
    06:00 +28°C° 0 mm 2 m/S 758 mmHg 61%
    07:00 +30°C° 0 mm 2 m/S 758 mmHg 54%
    08:00 +32°C° 0 mm 2 m/S 758 mmHg 48%
    09:00 +35°C° 0 mm 2 m/S 758 mmHg 41%
    10:00 +37°C° 0 mm 2 m/S 758 mmHg 37%
    11:00 +38°C° 0 mm 2 m/S 757 mmHg 33%
    12:00 +40°C° 0 mm 2 m/S 757 mmHg 28%
    13:00 +40°C° 0 mm 1 m/S 757 mmHg 27%
    14:00 +41°C° 0 mm 1 m/S 757 mmHg 26%
    15:00 +41°C° 0 mm 1 m/S 757 mmHg 24%
    16:00 +40°C° 0 mm 2 m/S 756 mmHg 28%
    17:00 +39°C° 0 mm 2 m/S 756 mmHg 32%
    18:00 +38°C° 0 mm 2 m/S 756 mmHg 35%
    19:00 +36°C° 0.1 mm 3 m/S 756 mmHg 38%
    20:00 +34°C° 0.1 mm 3 m/S 757 mmHg 40%
    21:00 +33°C° 0.1 mm 3 m/S 757 mmHg 42%
    22:00 +31°C° 0 mm 3 m/S 757 mmHg 44%
    23:00 +30°C° 0 mm 3 m/S 757 mmHg 46%

    26 Juli, Freitag

    Zeit Temperatur Niederschläge Wind Luftdruck Luftfeuchtigkeit
    00:00 +29°C° 0 mm 4 m/S 757 mmHg 48%
    01:00 +29°C° 0 mm 3 m/S 756 mmHg 49%
    02:00 +28°C° 0 mm 3 m/S 756 mmHg 50%
    03:00 +27°C° 0 mm 3 m/S 756 mmHg 51%
    04:00 +28°C° 0 mm 3 m/S 756 mmHg 49%
    05:00 +28°C° 0 mm 3 m/S 755 mmHg 48%
    06:00 +28°C° 0 mm 2 m/S 755 mmHg 46%
    07:00 +30°C° 0 mm 3 m/S 755 mmHg 44%
    08:00 +33°C° 0 mm 3 m/S 755 mmHg 42%
    09:00 +34°C° 0 mm 3 m/S 755 mmHg 39%
    10:00 +36°C° 0 mm 4 m/S 754 mmHg 36%
    11:00 +37°C° 0 mm 4 m/S 754 mmHg 33%
    12:00 +40°C° 0 mm 4 m/S 753 mmHg 30%
    13:00 +40°C° 0 mm 4 m/S 753 mmHg 28%
    14:00 +40°C° 0 mm 4 m/S 753 mmHg 27%
    15:00 +40°C° 0 mm 4 m/S 752 mmHg 26%
    16:00 +38°C° 0 mm 4 m/S 752 mmHg 29%
    17:00 +37°C° 0 mm 5 m/S 752 mmHg 32%
    18:00 +35°C° 0 mm 5 m/S 752 mmHg 34%
    19:00 +34°C° 0 mm 5 m/S 752 mmHg 38%
    20:00 +32°C° 0 mm 5 m/S 752 mmHg 41%
    21:00 +30°C° 0 mm 5 m/S 752 mmHg 44%
    22:00 +29°C° 0 mm 5 m/S 752 mmHg 44%
    23:00 +28°C° 0 mm 5 m/S 752 mmHg 45%

    27 Juli, Samstag

    Zeit Temperatur Niederschläge Wind Luftdruck Luftfeuchtigkeit
    00:00 +27°C° 0 mm 4 m/S 752 mmHg 45%
    01:00 +27°C° 0 mm 4 m/S 752 mmHg 46%
    02:00 +26°C° 0 mm 4 m/S 751 mmHg 47%
    03:00 +25°C° 0 mm 3 m/S 751 mmHg 49%
    04:00 +25°C° 0 mm 3 m/S 751 mmHg 49%
    05:00 +26°C° 0 mm 4 m/S 750 mmHg 50%
    06:00 +26°C° 0 mm 4 m/S 750 mmHg 51%
    07:00 +27°C° 0 mm 4 m/S 750 mmHg 48%
    08:00 +29°C° 0 mm 5 m/S 750 mmHg 46%
    09:00 +30°C° 0 mm 5 m/S 750 mmHg 44%
    10:00 +32°C° 0 mm 5 m/S 750 mmHg 41%
    11:00 +34°C° 0 mm 4 m/S 750 mmHg 39%
    12:00 +35°C° 0 mm 4 m/S 749 mmHg 37%
    13:00 +35°C° 0 mm 4 m/S 749 mmHg 37%
    14:00 +35°C° 0 mm 4 m/S 749 mmHg 36%
    15:00 +35°C° 0 mm 3 m/S 749 mmHg 36%
    16:00 +34°C° 0.1 mm 4 m/S 749 mmHg 39%
    17:00 +33°C° 0.1 mm 4 m/S 749 mmHg 42%
    18:00 +32°C° 0.1 mm 4 m/S 749 mmHg 45%
    19:00 +29°C° 0.2 mm 3 m/S 749 mmHg 51%
    20:00 +28°C° 0.2 mm 3 m/S 750 mmHg 58%
    21:00 +26°C° 0.2 mm 3 m/S 750 mmHg 64%
    22:00 +26°C° 0 mm 2 m/S 750 mmHg 62%
    23:00 +25°C° 0 mm 2 m/S 750 mmHg 60%

    28 Juli, Sonntag

    Zeit Temperatur Niederschläge Wind Luftdruck Luftfeuchtigkeit
    00:00 +25°C° 0 mm 2 m/S 750 mmHg 58%
    01:00 +25°C° 0 mm 2 m/S 750 mmHg 58%
    02:00 +24°C° 0 mm 2 m/S 750 mmHg 59%
    03:00 +24°C° 0 mm 2 m/S 750 mmHg 59%
    04:00 +24°C° 0 mm 2 m/S 751 mmHg 59%
    05:00 +25°C° 0 mm 2 m/S 751 mmHg 58%
    06:00 +25°C° 0 mm 2 m/S 751 mmHg 58%
    07:00 +27°C° 0 mm 2 m/S 751 mmHg 53%
    08:00 +28°C° 0 mm 3 m/S 751 mmHg 48%
    09:00 +30°C° 0 mm 3 m/S 752 mmHg 43%
    10:00 +31°C° 0 mm 3 m/S 752 mmHg 39%
    11:00 +33°C° 0 mm 3 m/S 752 mmHg 36%
    12:00 +34°C° 0 mm 3 m/S 752 mmHg 32%
    13:00 +34°C° 0 mm 3 m/S 752 mmHg 31%
    14:00 +34°C° 0 mm 3 m/S 752 mmHg 31%
    15:00 +34°C° 0 mm 3 m/S 752 mmHg 31%
    16:00 +33°C° 0 mm 3 m/S 752 mmHg 35%
    17:00 +32°C° 0 mm 2 m/S 752 mmHg 38%
    18:00 +31°C° 0 mm 2 m/S 752 mmHg 42%
    19:00 +29°C° 0 mm 2 m/S 753 mmHg 48%
    20:00 +28°C° 0 mm 2 m/S 754 mmHg 55%
    21:00 +26°C° 0 mm 2 m/S 754 mmHg 61%
    22:00 +25°C° 0 mm 2 m/S 754 mmHg 66%
    23:00 +25°C° 0 mm 2 m/S 755 mmHg 70%
    Mehr zeigen